NEWPRT Weather Reports


Display with metric or nautical units.
time (UTC)temp
F
wind
direction
speed
MPH
gust
MPH
rain 1hr
in
rain 24hr
in
rain mn
in
humidity
%
barometer
mb
20260903205400 0 281 1.0 2.0 0.40 0.40 0.40 56
20260903204837 0 338 0.0 5.0 0.40 0.40 0.40 59
20260903204314 0 173 0.0 5.0 0.40 0.40 0.40 57
20260903203751 0 351 0.0 7.0 0.40 0.40 0.40 58
20260903203228 0 243 0.0 7.0 0.40 0.40 0.40 58
20260903202706 0 119 0.0 7.0 0.40 0.40 0.40 59
20260903202142 0 16 3.0 7.0 0.40 0.40 0.40 58
20260903201619 0 149 0.0 7.0 0.40 0.40 0.40 59
20260903201056 0 179 1.0 7.0 0.40 0.40 0.40 60
20260903200533 0 343 0.0 3.0 0.40 0.40 0.40 60
20260903200010 0 197 0.0 3.0 0.40 0.40 0.40 61
20260903195447 0 100 0.0 3.0 0.40 0.40 0.40 61
20260903194924 0 68 0.0 4.0 0.00 0.40 0.40 56
20260903194401 0 54 0.0 7.0 0.00 0.40 0.40 60
20260903193838 0 112 0.0 7.0 0.00 0.40 0.40 64
20260903193315 0 329 1.0 7.0 0.00 0.40 0.40 67
20260903192752 0 291 0.0 7.0 0.00 0.40 0.40 69
20260903192231 0 145 0.0 7.0 0.00 0.40 0.40 69
20260903191706 0 123 0.0 7.0 0.00 0.40 0.40 68
20260903191143 0 165 1.0 5.0 0.00 0.40 0.40 70
20260903190620 0 81 0.0 5.0 0.00 0.40 0.40 72
20260903190057 0 179 0.0 6.0 0.01 0.40 0.40 69
20260903185534 0 266 0.0 6.0 0.01 0.40 0.40 69
20260903185011 0 128 0.0 6.0 0.03 0.40 0.40 70
20260903184447 0 155 0.0 4.0 0.03 0.40 0.40 70
20260903183925 0 168 1.0 3.0 0.40 0.40 0.40 71
20260903183402 0 162 0.0 3.0 0.40 0.40 0.40 74
20260903182839 0 21 0.0 3.0 0.40 0.40 0.40 73
20260903182315 0 0 0.0 0.0 0.40 0.40 0.40 74
20260903181753 0 147 0.0 6.0 0.40 0.40 0.40 74
20260903181230 0 187 0.0 6.0 0.40 0.40 0.40 74
20260903180707 0 0 0.0 5.0 0.40 0.40 0.40 75
20260903180144 0 144 0.0 5.0 0.39 0.40 0.40 75
20260903175620 0 268 1.0 6.0 0.39 0.39 0.39 67
20260903175058 0 211 0.0 6.0 0.37 0.38 0.38 68
20260903174534 0 224 0.0 6.0 0.37 0.37 0.37 68
20260903172925 0 348 3.0 4.0 0.34 0.34 0.34 74
20260903172402 0 44 1.0 4.0 0.00 0.34 0.34 75
20260903171316 0 119 0.0 4.0 0.34 0.34 0.34 75
20260903170753 0 19 0.0 10.0 0.34 0.34 0.34 73
20260903170231 0 194 3.0 10.0 0.00 0.34 0.34 73
20260903165145 0 207 1.0 10.0 0.01 0.33 0.33 74
20260903164621 0 225 3.0 11.0 0.01 0.33 0.33 75
20260903164058 0 189 2.0 11.0 0.33 0.33 0.33 75
20260903163535 0 107 1.0 11.0 0.33 0.33 0.33 73
20260903163012 0 247 2.0 12.0 0.33 0.33 0.33 73
20260903162449 0 226 3.0 12.0 0.33 0.33 0.33 72
20260903161926 0 110 2.0 12.0 0.33 0.33 0.33 71
20260903161404 0 147 2.0 8.0 0.32 0.33 0.33 73
20260903160840 0 100 2.0 7.0 0.32 0.33 0.33 72
20260903160317 0 71 1.0 10.0 0.32 0.32 0.32 72
20260903155755 0 61 1.0 10.0 0.32 0.32 0.32 71
20260903155232 0 190 2.0 10.0 0.32 0.32 0.32 72
20260903154708 0 177 1.0 13.0 0.32 0.32 0.32 72
20260903154145 0 124 1.0 13.0 0.00 0.32 0.32 71
20260903153622 0 138 0.0 13.0 0.32 0.32 0.32 71
20260903153059 0 82 4.0 11.0 0.32 0.32 0.32 74
20260903152536 0 67 3.0 10.0 0.32 0.32 0.32 74
20260903152013 0 5 5.0 8.0 0.32 0.32 0.32 73
20260903151450 0 330 2.0 8.0 0.32 0.32 0.32 74
20260903151019 0 138 1.0 9.0 0.32 0.32 0.32 72
20260903150927 0 138 1.0 9.0 0.32 0.32 0.32 72
20260903150404 0 144 1.0 9.0 0.32 0.32 0.32 72
20260903145841 0 225 0.0 8.0 0.32 0.32 0.32 73
20260903145318 0 77 2.0 13.0 0.32 0.32 0.32 73
20260903144755 0 51 3.0 7.0 0.32 0.32 0.32 75
20260903144232 0 51 2.0 8.0 0.32 0.32 0.32 74
20260903143709 0 112 1.0 8.0 0.32 0.32 0.32 73
20260903143147 0 189 2.0 8.0 0.00 0.32 0.32 72
20260903142625 0 249 3.0 7.0 0.00 0.32 0.32 71
20260903142100 0 170 1.0 11.0 0.00 0.32 0.32 70
20260903141537 0 152 2.0 11.0 0.00 0.32 0.32 70
20260903141014 0 168 1.0 11.0 0.00 0.32 0.32 68
20260903140451 0 352 0.0 9.0 0.00 0.32 0.32 70
20260903135928 0 170 2.0 9.0 0.03 0.32 0.32 71
20260903135405 0 158 0.0 8.0 0.10 0.32 0.32 70
20260903134842 0 110 2.0 8.0 0.10 0.32 0.32 69
20260903134319 0 149 2.0 8.0 0.14 0.32 0.32 71
20260903133756 0 147 4.0 8.0 0.14 0.32 0.32 73
20260903133233 0 190 0.0 8.0 0.18 0.32 0.32 73
20260903132710 0 49 1.0 6.0 0.18 0.32 0.32 72
20260903132147 0 119 2.0 4.0 0.23 0.32 0.32 71
20260903131625 0 0 1.0 1.0 0.23 0.32 0.32 73
20260903131101 0 18 0.0 3.0 0.23 0.32 0.32 72
20260903130538 0 53 0.0 3.0 0.23 0.32 0.32 75
20260903130015 0 163 0.0 3.0 0.20 0.32 0.32 67
20260903125453 0 205 0.0 8.0 0.20 0.29 0.30 73
20260903124929 0 221 0.0 8.0 0.13 0.26 0.26 72
20260903124406 0 161 2.0 6.0 0.09 0.20 0.21 75
20260903123843 0 119 0.0 7.0 0.09 0.18 0.18 72
20260903123320 0 170 2.0 7.0 0.05 0.18 0.18 75
20260903122757 0 95 0.0 8.0 0.05 0.18 0.18 68
20260903122234 0 92 0.0 8.0 0.00 0.10 0.10 68
20260903121711 0 128 1.0 8.0 0.00 0.10 0.10 71
20260903121148 0 170 1.0 7.0 0.00 0.09 0.09 66
20260903120625 0 154 3.0 10.0 0.00 0.09 0.09 68
20260903115539 0 172 0.0 10.0 0.00 0.09 0.09 69
20260903115016 0 134 0.0 9.0 0.00 0.09 0.09 68
20260903114453 0 194 0.0 8.0 0.00 0.09 0.09 67
20260903113930 0 168 1.0 8.0 0.03 0.09 0.09 70
20260903113407 0 198 3.0 7.0 0.04 0.09 0.09 69
20260903112844 0 128 1.0 11.0 0.04 0.09 0.09 69
20260903112321 0 180 1.0 11.0 0.04 0.09 0.09 68
20260903111758 0 152 2.0 8.0 0.04 0.09 0.09 66
20260903111235 0 354 1.0 9.0 0.04 0.09 0.09 66
20260903110712 0 182 1.0 9.0 0.04 0.09 0.09 65
20260903110149 0 329 1.0 9.0 0.04 0.09 0.09 67
20260903105626 0 222 0.0 9.0 0.04 0.09 0.09 70
20260903105103 0 166 3.0 9.0 0.04 0.09 0.09 74
20260903104539 0 165 0.0 9.0 0.04 0.09 0.09 67
20260903104016 0 134 2.0 9.0 0.01 0.07 0.07 63
20260903103453 0 204 3.0 9.0 0.01 0.06 0.06 67
20260903102931 0 137 2.0 11.0 0.00 0.05 0.05 64
20260903102454 0 221 0.0 11.0 0.00 0.05 0.05 64
20260903102407 0 221 0.0 11.0 0.00 0.05 0.05 64
20260903101844 0 113 1.0 10.0 0.00 0.05 0.05 65
20260903101321 0 163 1.0 11.0 0.00 0.05 0.05 65
20260903100758 0 144 2.0 11.0 0.00 0.05 0.05 66
20260903100241 0 79 2.0 11.0 0.00 0.05 0.05 66
20260903095712 0 126 3.0 11.0 0.00 0.05 0.05 64
20260903095149 0 140 1.0 11.0 0.00 0.05 0.05 64
20260903094626 0 152 0.0 9.0 0.00 0.05 0.05 62
20260903094106 0 14 2.0 9.0 0.00 0.05 0.05 65
20260903093540 0 133 0.0 10.0 0.00 0.05 0.05 63
20260903093017 0 149 1.0 10.0 0.00 0.05 0.05 63
20260903092455 0 190 4.0 10.0 0.00 0.05 0.05 61
20260903091931 0 170 0.0 9.0 0.00 0.05 0.05 63
20260903091408 0 175 1.0 9.0 0.00 0.05 0.05 62
20260903090845 0 182 3.0 13.0 0.00 0.05 0.05 63
20260903090322 0 168 2.0 13.0 0.00 0.05 0.05 62
20260903085759 0 207 2.0 10.0 0.00 0.05 0.05 64
20260903085236 0 128 1.0 10.0 0.00 0.05 0.05 62
20260903084713 0 225 0.0 10.0 0.00 0.05 0.05 64
20260903084150 0 68 3.0 9.0 0.00 0.05 0.05 63
20260903083627 0 158 2.0 9.0 0.00 0.05 0.05 65
20260903083104 0 44 1.0 8.0 0.00 0.05 0.05 65
20260903082541 0 163 1.0 11.0 0.00 0.05 0.05 63
20260903082018 0 203 1.0 11.0 0.00 0.05 0.05 64
20260903081455 0 168 1.0 11.0 0.00 0.05 0.05 63
20260903080932 0 128 1.0 7.0 0.00 0.05 0.05 63
20260903080409 0 228 2.0 6.0 0.00 0.05 0.05 65
20260903075846 0 182 1.0 6.0 0.00 0.05 0.05 65
20260903075323 0 184 2.0 6.0 0.00 0.05 0.05 65
20260903074800 0 133 1.0 11.0 0.00 0.05 0.05 64
20260903074238 0 203 2.0 11.0 0.00 0.05 0.05 64
20260903073714 0 159 1.0 11.0 0.00 0.05 0.05 66
20260903073151 0 145 2.0 9.0 0.00 0.05 0.05 67
20260903072628 0 168 2.0 8.0 0.00 0.05 0.05 67
20260903072105 0 179 1.0 6.0 0.00 0.05 0.05 67
20260903071542 0 249 1.0 6.0 0.00 0.05 0.05 66
20260903071019 0 352 1.0 8.0 0.00 0.05 0.05 67
20260903070456 0 261 1.0 8.0 0.00 0.05 0.05 66
20260903065933 0 165 2.0 8.0 0.00 0.05 0.05 68
20260903065503 0 109 1.0 6.0 0.00 0.05 0.05 66
20260903065411 0 109 1.0 6.0 0.00 0.05 0.05 66
20260903064847 0 175 1.0 6.0 0.00 0.05 0.05 66
20260903064325 0 169 3.0 6.0 0.00 0.05 0.05 67
20260903063801 0 26 0.0 7.0 0.00 0.05 0.05 66
20260903063238 0 77 2.0 7.0 0.00 0.05 0.05 66
20260903062715 0 149 0.0 7.0 0.00 0.05 0.05 67
20260903062153 0 166 0.0 10.0 0.00 0.05 0.05 66
20260903061629 0 42 2.0 10.0 0.00 0.05 0.05 66
20260903061106 0 151 0.0 10.0 0.00 0.05 0.05 65
20260903060543 0 86 3.0 12.0 0.00 0.05 0.05 64
20260903060020 0 152 0.0 12.0 0.02 0.05 0.05 63
20260903055457 0 147 1.0 12.0 0.02 0.05 0.05 64
20260903054934 0 154 1.0 7.0 0.03 0.05 0.05 64
20260903054411 0 168 1.0 9.0 0.03 0.05 0.05 64
20260903053848 0 179 2.0 9.0 0.03 0.05 0.05 62
20260903053325 0 166 2.0 6.0 0.03 0.05 0.05 63
20260903052802 0 119 1.0 8.0 0.03 0.05 0.05 63
20260903052239 0 39 4.0 8.0 0.03 0.05 0.05 61
20260903051716 0 123 1.0 8.0 0.03 0.05 0.05 63
20260903051153 0 238 2.0 7.0 0.03 0.05 0.05 61
20260903050630 0 26 2.0 10.0 0.03 0.05 0.05 59
20260903050108 0 207 2.0 10.0 0.01 0.05 0.05 62
20260903045544 0 162 3.0 10.0 0.01 0.04 0.04 60
20260903045021 0 193 3.0 6.0 0.00 0.02 0.02 59
20260903044458 0 140 3.0 8.0 0.00 0.02 0.02 58
20260903043935 0 141 3.0 8.0 0.00 0.02 0.02 58
20260903043412 0 147 3.0 8.0 0.00 0.02 0.02 58
20260903042849 0 166 3.0 8.0 0.00 0.02 0.02 58
20260903042326 0 63 1.0 7.0 0.01 0.02 0.02 59
20260903041803 0 170 2.0 7.0 0.01 0.02 0.02 58
20260903041240 0 121 2.0 7.0 0.01 0.02 0.02 60
20260903040717 0 130 2.0 7.0 0.01 0.02 0.02 58
20260903040154 0 158 2.0 7.0 0.01 0.02 0.02 58
20260903035630 0 103 2.0 8.0 0.01 0.02 0.02 59
20260903035107 0 333 1.0 8.0 0.02 0.02 0.02 60
20260903034545 0 347 2.0 8.0 0.02 0.02 0.02 69
20260903034022 0 149 0.0 6.0 0.02 0.02 0.02 68
20260903033459 0 57 0.0 4.0 0.02 0.02 0.02 68
20260903032936 0 135 1.0 8.0 0.02 0.02 0.02 69
20260903032412 0 200 0.0 8.0 0.02 0.02 0.02 69
20260903031851 0 133 1.0 7.0 0.01 0.02 0.02 68
20260903031329 0 141 0.0 7.0 0.01 0.01 0.01 67
20260903030804 0 149 2.0 7.0 0.01 0.01 0.01 68
20260903030241 0 184 2.0 7.0 0.01 0.01 0.01 68
20260903025717 0 131 0.0 7.0 0.01 0.01 0.01 70
20260903025155 0 334 2.0 9.0 0.00 0.00 0.00 67
20260903024631 0 214 2.0 9.0 0.00 0.00 0.00 69
20260903024108 0 127 1.0 9.0 0.00 0.00 0.00 64
20260903023545 0 154 3.0 6.0 0.00 0.00 0.00 52
20260903023022 0 228 1.0 6.0 0.00 0.00 0.00 68
20260903022459 0 71 1.0 6.0 0.00 0.00 0.00 67
20260903021937 0 44 3.0 6.0 0.00 0.00 0.00 65
20260903021413 0 193 0.0 6.0 0.00 0.62 0.00 62
20260903020850 0 39 2.0 6.0 0.00 0.62 0.00 63
20260903020328 0 112 1.0 6.0 0.00 0.62 0.00 63
20260903015804 0 198 1.0 8.0 0.00 0.62 0.00 61
20260903015241 0 106 3.0 8.0 0.00 0.62 0.00 60
20260903014718 0 187 1.0 8.0 0.00 0.62 0.00 60
20260903014155 0 135 1.0 7.0 0.00 0.62 0.00 62
20260903013632 0 61 2.0 7.0 0.00 0.62 0.00 64
20260903013110 0 219 1.0 7.0 0.00 0.62 0.00 65
20260903012547 0 142 1.0 6.0 0.00 0.62 0.00 65
20260903012023 0 225 1.0 6.0 0.00 0.62 0.00 64
20260903011500 0 176 0.0 6.0 0.00 0.62 0.00 61
20260903010937 0 15 1.0 6.0 0.00 0.62 0.00 63
20260903010414 0 175 1.0 6.0 0.00 0.62 0.00 60
20260903005851 0 162 0.0 6.0 0.00 0.62 0.00 62
20260903005329 0 53 0.0 5.0 0.00 0.62 0.00 65
20260903004805 0 149 2.0 6.0 0.00 0.62 0.00 64
20260903004242 0 119 2.0 6.0 0.00 0.62 0.00 51
20260903003719 0 54 3.0 6.0 0.00 0.62 0.00 50
20260903003156 0 145 0.0 4.0 0.00 0.62 0.00 52
20260903002634 0 138 1.0 5.0 0.00 0.62 0.00 65
20260903002110 0 145 0.0 5.0 0.00 0.62 0.00 62
20260903001547 0 102 0.0 5.0 0.00 0.62 0.00 63
20260903001024 0 56 0.0 4.0 0.00 0.62 0.00 63
20260903000501 0 148 0.0 4.0 0.00 0.62 0.00 63
20260902235938 0 175 2.0 4.0 0.00 0.62 0.00 62
20260902235415 0 68 0.0 3.0 0.00 0.62 0.00 58
20260902234852 0 93 0.0 3.0 0.00 0.62 0.00 56
20260902234330 0 158 1.0 5.0 0.00 0.62 0.00 56
20260902233806 0 158 0.0 5.0 0.00 0.62 0.62 55
20260902233243 0 145 0.0 2.0 0.00 0.62 0.62 53
20260902232720 0 70 0.0 2.0 0.00 0.62 0.62 51
20260902232157 0 44 0.0 3.0 0.00 0.62 0.62 54
20260902231634 0 145 0.0 3.0 0.00 0.62 0.62 53
20260902231111 0 64 0.0 3.0 0.00 0.62 0.62 58
20260902230548 0 95 0.0 2.0 0.00 0.62 0.62 60
20260902230025 0 0 0.0 4.0 0.00 0.62 0.62 64
20260902225502 0 343 0.0 4.0 0.00 0.62 0.62 68
20260902224939 0 54 0.0 4.0 0.00 0.62 0.62 69
20260902224416 0 337 0.0 4.0 0.00 0.62 0.62 70
20260902223853 0 161 0.0 4.0 0.00 0.62 0.62 70
20260902223330 0 197 0.0 2.0 0.00 0.62 0.62 69
20260902222808 0 47 0.0 2.0 0.00 0.62 0.62 68
20260902222244 0 39 0.0 2.0 0.00 0.62 0.62 70
20260902221721 0 131 0.0 2.0 0.00 0.62 0.62 71
20260902221158 0 0 0.0 6.0 0.01 0.62 0.62 70
20260902220635 0 0 0.0 6.0 0.01 0.62 0.62 69
20260902220112 0 175 0.0 6.0 0.01 0.62 0.62 70
20260902215549 0 161 0.0 2.0 0.01 0.62 0.62 68
20260902215026 0 166 0.0 5.0 0.02 0.62 0.62 70
20260902214503 0 168 0.0 5.0 0.02 0.62 0.62 71
20260902213940 0 235 0.0 5.0 0.02 0.62 0.62 70
20260902213417 0 203 1.0 5.0 0.02 0.62 0.62 69
20260902212854 0 196 1.0 5.0 0.02 0.62 0.62 69
20260902212331 0 184 2.0 3.0 0.02 0.62 0.62 70
20260902211808 0 179 0.0 3.0 0.02 0.62 0.62 69
20260902211245 0 315 0.0 6.0 0.02 0.61 0.62 71
20260902210722 0 190 0.0 6.0 0.02 0.61 0.61 72
20260902210159 0 155 0.0 6.0 0.03 0.61 0.61 71
20260902205636 0 147 2.0 2.0 0.03 0.61 0.61 72